Home > Weather > Mount Pearl > Past weeks

Flag for Canada Weather for the Past 2 Weeks in Mount Pearl, Newfoundland and Labrador, Canada

Now
37 °F

Light fog.


Feels Like: 31 °F
Forecast: 30 / 46 °F
Wind: 8 mph from Northeast

Location: St. John's

Current Time: May 2, 2016 at 10:45:04 AM

Latest Report: May 2, 2016 at 9:30 AM


Visibility: 15 mi

Pressure: 30.20 "Hg

Humidity: 75%

Dew Point: 30 °F

Location of Mount PearlLocation

Historic Weather in Mount Pearl — Graph

°F

Mount Pearl Temperature Yesterday

Maximum temperature yesterday: 41 °F (at 1:30 PM)
Minimum temperature yesterday: 27 °F (at 9:30 PM)
Average temperature yesterday: 33 °F

High & Low Weather Summary for the Past Weeks

 TemperatureHumidityPressure
High50 °F (Apr 24, 9:30 AM)100% (Apr 20, 12:30 PM)30.36 "Hg (Apr 20, 12:30 PM)
Low25 °F (Apr 26, 5:30 AM)41% (Apr 26, 2:24 PM)29.08 "Hg (Apr 20, 7:30 PM)
Average34 °F80%29.82 "Hg
* Reported Apr 17 9:30 AM — May 2 9:30 AM, Mount Pearl, Weather by CustomWeather, © 2016

Note: Actual official high and low records may vary slightly from our data, if they occured in-between our weather recording intervals... More about our weather records

Advertising

Mount Pearl Weather History for the Previous 24 Hours

Scroll right to see more
 ConditionsComfort  
Time TempWeatherWind HumidityBarometerVisibility
9:30 AM
Mon, May 2
37 °FLight fog.8 mph75%30.20 "Hg15 mi
8:30 AM37 °FFog.8 mph75%30.20 "Hg15 mi
7:30 AM34 °FFog.5 mph81%30.19 "Hg15 mi
6:30 AM30 °FFog.3 mph86%30.19 "Hg15 mi
5:30 AM30 °FPassing clouds.5 mph86%30.19 "Hg15 mi
4:30 AM32 °FPassing clouds.8 mph80%30.19 "Hg15 mi
3:30 AM30 °FPassing clouds.6 mph86%30.19 "Hg15 mi
2:30 AM32 °FPassing clouds.6 mph87%30.20 "Hg15 mi
1:30 AM30 °FPassing clouds.7 mph80%30.23 "Hg15 mi
12:30 AM28 °FPassing clouds.5 mph86%30.24 "Hg15 mi
11:30 PM
Sun, May 1
28 °FPassing clouds.3 mph93%30.26 "Hg15 mi
10:30 PM27 °FPassing clouds.No wind100%30.27 "Hg12 mi
10:16 PM27 °FIce fog.No wind93%30.27 "Hg6 mi
9:30 PM27 °FIce fog.2 mph100%30.29 "Hg1 mi
8:30 PM28 °FIce fog.6 mph93%30.30 "Hg1 mi
7:30 PM34 °FFog.9 mph81%30.30 "Hg15 mi
6:30 PM36 °FFog.5 mph75%30.29 "Hg15 mi
5:30 PM37 °FFog.5 mph65%30.31 "Hg15 mi
4:30 PM36 °FFog.6 mph75%30.32 "Hg15 mi
3:30 PM41 °FPartly sunny.7 mph61%30.32 "Hg15 mi
2:30 PM39 °FPartly sunny.9 mph65%30.34 "Hg15 mi
1:30 PM41 °FOvercast.7 mph61%30.34 "Hg15 mi
12:30 PM39 °FOvercast.9 mph65%30.34 "Hg15 mi
11:30 AM37 °FOvercast.8 mph70%30.36 "Hg15 mi
10:30 AM37 °FPartly sunny.8 mph75%30.36 "Hg15 mi
Weather by CustomWeather, © 2016

See weather overviewHow to use our weather pages